Cloud_Cover
100 100 100 100 100 100 100 100 100 100 100 100 100 100 100 100 100 100 100 100 100 100 100 100 100 100 100 100 100 100 100 100 100 100 100 94 96 77 31 6 5 5 33 5
100 100 100 100 98 100 100 100 100 100 100 100 100 100 100 100 100 100 100 100 100 100 100 100 100 100 100 100 100 100 100 100 100 100 99 95 5 5 5 6 53 66 58 91
98 100 100 100 100 100 100 100 100 100 100 100 100 100 100 100 100 100 100 100 100 100 100 100 100 100 100 100 100 100 100 100 100 100 58 58 72 17 43 31 84 100 100 100
100 100 100 96 91 100 100 100 100 100 100 100 100 100 100 100 100 100 100 100 100 100 100 100 100 100 100 100 100 100 100 93 100 88 100 84 85 76 93 100 100 100 91 100
100 100 81 61 100 100 100 100 100 100 100 100 100 100 100 100 100 100 100 100 100 100 100 100 100 100 100 100 100 100 100 73 9 100 99 86 75 90 100 100 74 95 99 83
100 100 100 88 100 100 100 100 100 100 100 100 100 100 100 100 100 100 100 100 100 100 100 100 100 100 100 100 100 100 100 70 34 72 92 82 100 100 91 64 89 90 25 41
100 100 100 100 100 100 100 99 100 100 100 100 100 100 100 100 100 100 100 100 100 100 100 100 100 100 100 100 100 91 84 29 88 92 95 100 100 95 75 68 80 27 5 5
100 100 100 100 100 93 94 92 87 100 100 100 100 100 100 100 100 100 100 100 100 100 100 100 100 100 100 100 95 90 98 92 79 87 100 100 92 80 88 66 25 38 7 5
100 100 100 100 100 77 13 6 5 5 6 37 47 85 100 100 100 100 100 100 100 100 100 100 100 100 100 100 100 99 80 84 95 100 100 100 98 99 100 59 42 58 23 63
90 100 100 99 77 4 1 3 32 9 10 100 100 98 100 100 100 100 100 100 78 92 100 100 100 100 100 100 100 100 100 97 99 100 100 100 100 100 93 87 65 5 15 33
91 33 90 11 27 5 5 5 5 5 43 100 100 100 100 100 100 100 100 100 100 100 100 100 100 100 100 100 100 100 100 100 100 100 100 99 100 96 91 89 8 5 24 72
6 50 100 94 73 9 5 3 1 5 55 100 100 100 99 100 100 100 100 100 95 100 100 100 100 100 95 100 100 100 100 100 100 100 100 100 95 88 80 70 5 5 92 100
5 100 86 5 80 6 3 0 0 50 100 7 100 100 100 100 100 100 100 100 100 100 100 100 100 96 100 100 100 100 100 100 100 100 92 100 100 100 85 100 100 100 100 100
94 28 93 79 6 15 2 0 4 10 100 5 54 99 100 100 100 100 100 100 100 100 100 100 100 100 100 100 100 100 100 100 100 100 100 100 100 100 100 100 99 100 100 100
43 100 37 13 10 88 5 0 0 2 5 26 73 97 100 100 100 100 100 100 100 100 100 100 100 100 99 99 100 100 100 100 100 100 100 100 100 100 100 100 100 100 100 94
88 95 43 10 5 0 0 0 0 20 34 58 96 100 100 100 100 100 100 88 99 100 100 90 100 100 100 100 100 100 100 100 100 100 100 100 100 100 100 100 100 100 100 100
43 17 38 8 2 0 0 0 0 33 100 82 100 100 78 92 100 100 100 100 100 89 84 97 100 100 100 100 100 100 100 100 100 100 100 100 100 100 100 100 100 100 100 100
7 99 5 4 0 0 0 4 100 100 98 100 100 85 98 100 100 100 100 100 100 100 100 100 100 100 100 100 100 100 100 100 100 100 100 100 100 100 100 100 100 100 100 100
100 100 8 0 2 5 13 99 100 100 85 100 100 100 100 98 85 77 75 72 86 94 98 100 100 100 100 100 100 100 100 100 100 100 100 100 100 100 100 100 100 100 100 100
100 100 99 76 20 9 52 65 97 94 100 100 98 95 97 98 74 86 62 58 69 82 81 84 96 100 100 100 100 100 100 100 100 100 100 100 100 100 100 100 100 100 100 100
100 100 100 97 60 100 100 100 100 100 100 94 46 76 66 89 76 81 86 86 44 75 76 80 77 84 68 56 56 80 87 97 100 100 100 100 99 99 86 72 88 100 100 100
100 100 93 62 29 66 85 100 100 100 100 100 92 73 90 100 100 91 74 36 48 66 19 73 33 59 21 18 43 8 6 26 60 54 79 84 70 86 98 98 100 100 100 100
100 100 100 100 86 91 99 100 100 100 100 99 75 66 63 77 75 88 97 34 36 58 6 31 65 89 89 65 65 76 86 87 90 96 99 97 68 66 69 80 93 93 100 100
100 100 100 95 100 100 100 100 100 100 100 100 96 79 30 94 87 66 83 92 79 53 55 68 77 92 82 76 71 73 74 72 76 80 77 76 76 83 100 100 100 100 100 100
99 100 100 100 100 100 100 100 100 100 100 93 97 97 98 98 98 80 73 76 73 83 88 74 91 96 81 76 73 74 76 79 73 73 70 71 90 100 100 100 100 100 100 100
94 100 100 100 100 100 100 100 100 100 100 100 99 99 95 94 88 68 71 86 82 92 76 79 71 72 73 76 78 79 82 82 77 70 72 80 95 100 100 100 100 100 100 100
100 100 100 100 100 100 100 100 100 100 100 100 100 100 95 88 88 90 94 100 99 93 72 66 58 56 68 69 66 76 76 81 79 85 79 100 100 100 100 100 100 100 100 100